Location: Edoum�
(0.9447°N, 10.6482°E)
Time: 23:20:25
(UTC+00:00)

Atlas Centaur 2 - Pass Details

Date: 07 June 2020
Orbit: 459 x 1310 km, 30.4° (Epoch: 10 July)

Event Time Altitude Azimuth Distance (km) Brightness Sun altitude
Exits shadow 03:51:07 26° 282° (WNW) 1,615 3.2 -19.2°
Maximum altitude 03:53:28 36° 325° (NW) 1,238 3.0 -18.6°
Drops below altitude 10° 03:58:05 10° 32° (NNE) 2,119 5.1 -17.6°
Sets 04:00:21 0° 41° (NE) 2,909 6.2 -17.1°
